Location: Noyers
(47.2770°N, 1.4032°E)
Time: 23:35:25
(UTC+00:00)

ISS - Pass Details

Date: 15 May 2026
Orbit: 416 x 423 km, 51.6° (Epoch: 11 June)

Event Time Altitude Azimuth Distance (km) Brightness Sun altitude
Rises 22:44:02 0° 294° (WNW) 2,360 0.6 -22.0°
Reaches altitude 10° 22:46:08 10° 296° (WNW) 1,495 -0.4 -22.1°
Enters shadow 22:48:48 51° 313° (NW) 529 -3.0 -22.2°
